Dades meteomassalio
Diari Summary for Gener 29, 2017 Units:  Metric    English   Both
« Previous Day
Next Day »
Diari Semanal Mensual Anual Personalitzat
  Maxima: Minima: Mijana:
Temperatura: -17.8 °C -17.3 °C -13.8 °C
Rosada: -17.8 °C -18.1 °C -16.1 °C
Humitat: Humidity % 50 % 76 %
Velocitat del vent: 0 km/h 0 km/h 2.3 km/h
Racha vent: 0 km/h - -
Vent:- - West
Pressio: 0 hPa 34635.4 hPa -
Pluja: 0 mm    
Historical Graphs
 
 
Tabular Data for Gener 29, 2017
Time Temperature Dew Point Pressure Wind Wind Speed Wind Gust Humidity Rainfall Rate (Hourly) solar Conditions
-17.8 °C -17.8 °C 0 hPa Calm     Humidity % 0 mm SolarRadiationWatts/m^2 W/m2 Conditions
00:02 -13.7 °C -16.7 °C 34740.4 hPa West 29.8 km/h 29.8 km/h 69 % 0 mm 0.0 W/m2 RA
00:07 -13.7 °C -16.8 °C 34740.4 hPa West 29.8 km/h 29.8 km/h 68 % 0 mm 0.0 W/m2 CLR
00:12 -13.7 °C -16.7 °C 34740.4 hPa West 29.8 km/h 29.8 km/h 68 % 0 mm 0.0 W/m2 CLR
00:17 -13.7 °C -16.7 °C 34740.4 hPa West 32.8 km/h 32.8 km/h 68 % 0 mm 0.0 W/m2 CLR
00:22 -13.7 °C -16.7 °C 34740.4 hPa West 31.1 km/h 31.1 km/h 68 % 0 mm 0.0 W/m2 CLR
00:27 -13.7 °C -16.8 °C 34740.4 hPa West 29.8 km/h 29.8 km/h 67 % 0 mm 0.0 W/m2 CLR
00:32 -13.7 °C -16.8 °C 34740.4 hPa West 29.8 km/h 29.8 km/h 67 % 0 mm 0.0 W/m2 CLR
00:37 -13.7 °C -16.8 °C 34740.4 hPa West 33.6 km/h 33.6 km/h 67 % 0 mm 0.0 W/m2 CLR
00:42 -13.6 °C -16.8 °C 34740.4 hPa West 29.8 km/h 29.8 km/h 67 % 0 mm 0.0 W/m2 CLR
00:47 -13.7 °C -16.8 °C 34740.4 hPa West 20.9 km/h 20.9 km/h 67 % 0 mm 0.0 W/m2 CLR
00:52 -13.7 °C -16.8 °C 34740.4 hPa West 29.8 km/h 29.8 km/h 67 % 0 mm 0.0 W/m2 CLR
00:57 -13.7 °C -16.8 °C 34740.4 hPa West 26.9 km/h 26.9 km/h 67 % 0 mm 0.0 W/m2 CLR
01:02 -13.7 °C -16.8 °C 34740.4 hPa West 17.9 km/h 17.9 km/h 67 % 0 mm 0.0 W/m2 CLR
01:07 -13.8 °C -16.9 °C 34740.4 hPa Calm     68 % 0 mm 0.0 W/m2 CLR
01:12 -14.2 °C -17.1 °C 34740.4 hPa Calm     70 % 0 mm 0.0 W/m2 CLR
01:17 -14.4 °C -17.1 °C 34740.4 hPa WSW 11.9 km/h 11.9 km/h 72 % 0 mm 0.0 W/m2 CLR
01:22 -14.4 °C -17 °C 34740.4 hPa Calm     72 % 0 mm 0.0 W/m2 CLR
01:32 -14.9 °C -17.2 °C 34740.4 hPa WSW 20.9 km/h 20.9 km/h 75 % 0 mm 0.0 W/m2 CLR
01:37 -14.9 °C -17.1 °C 34740.4 hPa WSW 20.9 km/h 20.9 km/h 76 % 0 mm 0.0 W/m2 CLR
01:42 -14.7 °C -17 °C 34740.4 hPa West 20.9 km/h 20.9 km/h 75 % 0 mm 0.0 W/m2 CLR
01:47 -14.6 °C -17 °C 34740.4 hPa WSW 15.6 km/h 15.6 km/h 73 % 0 mm 0.0 W/m2 CLR
01:52 -14.5 °C -17.1 °C 34740.4 hPa WSW 11.9 km/h 11.9 km/h 72 % 0 mm 0.0 W/m2 CLR
01:57 -14.6 °C -17.1 °C 34740.4 hPa Calm     73 % 0 mm 0.0 W/m2 CLR
02:02 -14.7 °C -17.1 °C 34740.4 hPa Calm     74 % 0 mm 0.0 W/m2 CLR
02:07 -14.9 °C -17.1 °C 34740.4 hPa Calm     75 % 0 mm 0.0 W/m2 CLR
02:12 -15.1 °C -17.2 °C 34740.4 hPa Calm     76 % 0 mm 0.0 W/m2 CLR
02:17 -15.2 °C -17.3 °C 34740.4 hPa Calm     76 % 0 mm 0.0 W/m2 CLR
02:27 -15.3 °C -17.3 °C 34740.4 hPa Calm     77 % 0 mm 0.0 W/m2 CLR
02:32 -15.3 °C -17.3 °C 34740.4 hPa Calm     78 % 0 mm 0.0 W/m2 CLR
02:43 -15.5 °C -17.4 °C 34740.4 hPa Calm     79 % 0 mm 0.0 W/m2 CLR
02:48 -15.6 °C -17.4 °C 34750.5 hPa Calm     79 % 0 mm 0.0 W/m2 CLR
02:53 -15.6 °C -17.3 °C 34750.5 hPa Calm     80 % 0 mm 0.0 W/m2 CLR
02:58 -15.7 °C -17.4 °C 34750.5 hPa Calm     80 % 0 mm 0.0 W/m2 CLR
03:03 -15.7 °C -17.4 °C 34750.5 hPa Calm     80 % 0 mm 0.0 W/m2 CLR
03:08 -15.8 °C -17.5 °C 34740.4 hPa Calm     80 % 0 mm 0.0 W/m2 CLR
03:13 -15.8 °C -17.4 °C 34750.5 hPa Calm     81 % 0 mm 0.0 W/m2 CLR
03:23 -15.9 °C -17.4 °C 34750.5 hPa Calm     82 % 0 mm 0.0 W/m2 CLR
03:28 -15.9 °C -17.5 °C 34750.5 hPa Calm     82 % 0 mm 0.0 W/m2 CLR
03:33 -16.1 °C -17.5 °C 34750.5 hPa Calm     83 % 0 mm 0.0 W/m2 CLR
03:43 -16.1 °C -17.6 °C 34750.5 hPa Calm     83 % 0 mm 0.0 W/m2 CLR
03:48 -16.1 °C -17.6 °C 34750.5 hPa Calm     83 % 0 mm 0.0 W/m2 CLR
03:53 -16.2 °C -17.5 °C 34750.5 hPa Calm     84 % 0 mm 0.0 W/m2 CLR
03:58 -16.2 °C -17.5 °C 34750.5 hPa Calm     84 % 0 mm 0.0 W/m2 CLR
04:03 -16.2 °C -17.7 °C 34750.5 hPa Calm     83 % 0 mm 0.0 W/m2 CLR
04:08 -16.3 °C -17.7 °C 34750.5 hPa Calm     84 % 0 mm 0.0 W/m2 CLR
04:13 -16.3 °C -17.7 °C 34750.5 hPa Calm     84 % 0 mm 0.0 W/m2 CLR
04:18 -16.4 °C -17.7 °C 34750.5 hPa Calm     85 % 0 mm 0.0 W/m2 CLR
04:23 -16.4 °C -17.7 °C 34750.5 hPa Calm     85 % 0 mm 0.0 W/m2 CLR
04:28 -16.5 °C -17.8 °C 34750.5 hPa Calm     85 % 0 mm 0.0 W/m2 CLR
04:33 -16.6 °C -17.8 °C 34750.5 hPa Calm     86 % 0 mm 0.0 W/m2 CLR
04:38 -16.7 °C -17.8 °C 34750.5 hPa Calm     86 % 0 mm 0.0 W/m2 CLR
04:48 -16.7 °C -17.8 °C 34760.7 hPa Calm     87 % 0 mm 0.0 W/m2 CLR
04:53 -16.7 °C -17.8 °C 34760.7 hPa Calm     87 % 0 mm 0.0 W/m2 CLR
04:58 -16.7 °C -17.7 °C 34760.7 hPa Calm     88 % 0 mm 0.0 W/m2 CLR
05:03 -16.7 °C -17.8 °C 34760.7 hPa Calm     87 % 0 mm 0.0 W/m2 CLR
05:08 -16.7 °C -17.7 °C 34760.7 hPa Calm     88 % 0 mm 0.0 W/m2 CLR
05:13 -16.7 °C -17.7 °C 34760.7 hPa Calm     88 % 0 mm 0.0 W/m2 CLR
05:18 -16.7 °C -17.7 °C 34760.7 hPa Calm     88 % 0 mm 0.0 W/m2 CLR
05:23 -16.7 °C -17.7 °C 34760.7 hPa Calm     88 % 0 mm 0.0 W/m2 CLR
05:28 -16.8 °C -17.7 °C 34760.7 hPa Calm     88 % 0 mm 0.0 W/m2 CLR
05:33 -16.8 °C -17.7 °C 34760.7 hPa Calm     88 % 0 mm 0.0 W/m2 CLR
05:43 -16.8 °C -17.7 °C 34760.7 hPa Calm     89 % 0 mm 0.0 W/m2 CLR
05:48 -16.7 °C -17.6 °C 34760.7 hPa Calm     89 % 0 mm 0.0 W/m2 CLR
05:53 -16.7 °C -17.6 °C 34760.7 hPa Calm     89 % 0 mm 0.0 W/m2 CLR
05:58 -16.7 °C -17.7 °C 34760.7 hPa Calm     88 % 0 mm 0.0 W/m2 CLR
06:08 -16.8 °C -17.8 °C 34760.7 hPa Calm     88 % 0 mm 0.0 W/m2 CLR
06:13 -16.8 °C -17.8 °C 34760.7 hPa Calm     88 % 0 mm 0.0 W/m2 CLR
06:18 -16.9 °C -17.8 °C 34760.7 hPa Calm     89 % 0 mm 0.0 W/m2 CLR
06:23 -16.9 °C -17.8 °C 34760.7 hPa Calm     89 % 0 mm 0.0 W/m2 CLR
06:28 -16.9 °C -17.8 °C 34760.7 hPa Calm     89 % 0 mm 0.0 W/m2 CLR
06:38 -17 °C -17.9 °C 34760.7 hPa Calm     89 % 0 mm 0.0 W/m2 CLR
06:43 -17.1 °C -18 °C 34760.7 hPa Calm     89 % 0 mm 0.0 W/m2 CLR
06:48 -17.2 °C -18 °C 34760.7 hPa Calm     90 % 0 mm 0.0 W/m2 CLR
06:53 -17.2 °C -17.9 °C 34774.2 hPa Calm     90 % 0 mm 0.0 W/m2 CLR
06:58 -17.1 °C -17.9 °C 34760.7 hPa Calm     90 % 0 mm 0.0 W/m2 CLR
07:03 -17.1 °C -17.9 °C 34760.7 hPa Calm     90 % 0 mm 0.0 W/m2 CLR
07:08 -17.1 °C -17.9 °C 34774.2 hPa Calm     90 % 0 mm 0.0 W/m2 CLR
07:13 -17.2 °C -18 °C 34774.2 hPa Calm     90 % 0 mm 0.0 W/m2 CLR
07:18 -17.3 °C -18.1 °C 34774.2 hPa Calm     90 % 0 mm 0.0 W/m2 CLR
07:23 -17.3 °C -18.1 °C 34774.2 hPa Calm     90 % 0 mm 0.0 W/m2 CLR
07:28 -17.3 °C -18 °C 34774.2 hPa Calm     91 % 0 mm 0.0 W/m2 CLR
07:33 -17.3 °C -17.9 °C 34774.2 hPa Calm     91 % 0 mm 0.0 W/m2 CLR
07:38 -17.2 °C -17.9 °C 34774.2 hPa Calm     91 % 0 mm 0.0 W/m2 CLR
07:43 -17.2 °C -18 °C 34774.2 hPa Calm     90 % 0 mm 0.0 W/m2 CLR
07:48 -17.3 °C -18 °C 34774.2 hPa Calm     91 % 0 mm 0.0 W/m2 CLR
07:53 -17.3 °C -17.9 °C 34784.4 hPa Calm     91 % 0 mm 0.0 W/m2 CLR
07:58 -17.3 °C -17.9 °C 34784.4 hPa Calm     91 % 0 mm 0.0 W/m2 CLR
07:59 -17.3 °C -18 °C 34784.4 hPa Calm     91 % 0 mm 0.0 W/m2 CLR
08:04 -17.2 °C -17.9 °C 34784.4 hPa Calm     91 % 0 mm 5.0 W/m2 OVC
08:09 -17.2 °C -17.9 °C 34784.4 hPa Calm     91 % 0 mm 11.0 W/m2 OVC
08:14 -17.1 °C -17.8 °C 34784.4 hPa Calm     91 % 0 mm 12.0 W/m2 OVC
08:19 -17.1 °C -17.8 °C 34784.4 hPa Calm     91 % 0 mm 16.0 W/m2 BKN
08:24 -17.1 °C -17.8 °C 34784.4 hPa Calm     91 % 0 mm 21.0 W/m2 BKN
08:29 -17 °C -17.7 °C 34784.4 hPa Calm     91 % 0 mm 25.0 W/m2 BKN
08:34 -16.9 °C -17.7 °C 34784.4 hPa Calm     91 % 0 mm 26.0 W/m2 BKN
08:39 -16.8 °C -17.6 °C 34784.4 hPa Calm     91 % 0 mm 32.0 W/m2 BKN
08:44 -16.8 °C -17.5 °C 34784.4 hPa Calm     91 % 0 mm 40.0 W/m2 BKN
08:49 -16.6 °C -17.4 °C 34784.4 hPa Calm     91 % 0 mm 37.0 W/m2 BKN
08:59 -16.5 °C -17.3 °C 34784.4 hPa Calm     90 % 0 mm 37.0 W/m2 BKN
09:04 -16.5 °C -17.3 °C 34784.4 hPa Calm     90 % 0 mm 39.0 W/m2 BKN
09:09 -16.4 °C -17.3 °C 34784.4 hPa Calm     90 % 0 mm 44.0 W/m2 BKN
09:14 -16.4 °C -17.3 °C 34784.4 hPa Calm     90 % 0 mm 53.0 W/m2 BKN
09:19 -16.3 °C -17.2 °C 34784.4 hPa Calm     90 % 0 mm 58.0 W/m2 SCT
09:24 -16.3 °C -17.2 °C 34797.9 hPa Calm     89 % 0 mm 65.0 W/m2 SCT
09:29 -16.3 °C -17.2 °C 34797.9 hPa Calm     89 % 0 mm 76.0 W/m2 SCT
09:34 -16.3 °C -17.2 °C 34797.9 hPa Calm     89 % 0 mm 83.0 W/m2 FEW
09:39 -16.3 °C -17.3 °C 34797.9 hPa Calm     89 % 0 mm 84.0 W/m2 FEW
09:44 -16.3 °C -17.2 °C 34797.9 hPa Calm     89 % 0 mm 88.0 W/m2 FEW
09:49 -16.2 °C -17.1 °C 34797.9 hPa Calm     90 % 0 mm 114.0 W/m2 CLR
09:54 -16.2 °C -17.1 °C 34797.9 hPa Calm     90 % 0 mm 113.0 W/m2 CLR
10:04 -15.9 °C -16.7 °C 34797.9 hPa Calm     91 % 0 mm 144.0 W/m2 CLR
10:09 -15.8 °C -16.6 °C 34797.9 hPa Calm     90 % 0 mm 158.0 W/m2 CLR
10:14 -15.6 °C -16.6 °C 34784.4 hPa Calm     89 % 0 mm 162.0 W/m2 CLR
10:19 -15.4 °C -16.5 °C 34784.4 hPa Calm     88 % 0 mm 186.0 W/m2 CLR
10:24 -15.3 °C -16.4 °C 34784.4 hPa Calm     87 % 0 mm 163.0 W/m2 CLR
10:34 -15.1 °C -16.3 °C 34784.4 hPa Calm     86 % 0 mm 125.0 W/m2 CLR
10:39 -14.9 °C -16.2 °C 34784.4 hPa Calm     86 % 0 mm 155.0 W/m2 CLR
10:45 -14.8 °C -16.2 °C 34784.4 hPa Calm     85 % 0 mm 178.0 W/m2 CLR
10:50 -14.7 °C -16 °C 34784.4 hPa Calm     85 % 0 mm 185.0 W/m2 CLR
10:55 -14.6 °C -15.9 °C 34784.4 hPa Calm     85 % 0 mm 199.0 W/m2 CLR
11:00 -14.6 °C -15.9 °C 34784.4 hPa Calm     84 % 0 mm 193.0 W/m2 CLR
11:05 -14.4 °C -15.8 °C 34784.4 hPa Calm     84 % 0 mm 181.0 W/m2 CLR
11:10 -14.3 °C -15.7 °C 34784.4 hPa Calm     83 % 0 mm 181.0 W/m2 CLR
11:15 -14.1 °C -15.6 °C 34784.4 hPa Calm     83 % 0 mm 190.0 W/m2 CLR
11:20 -14 °C -15.6 °C 34784.4 hPa Calm     82 % 0 mm 248.0 W/m2 CLR
11:25 -13.8 °C -15.4 °C 34774.2 hPa Calm     82 % 0 mm 309.0 W/m2 CLR
11:30 -13.7 °C -15.3 °C 34774.2 hPa Calm     81 % 0 mm 411.0 W/m2 CLR
11:35 -13.4 °C -15.2 °C 34774.2 hPa Calm     80 % 0 mm 510.0 W/m2 CLR
11:40 -13.1 °C -15.2 °C 34774.2 hPa Calm     77 % 0 mm 396.0 W/m2 CLR
11:45 -12.9 °C -15.1 °C 34774.2 hPa Calm     77 % 0 mm 334.0 W/m2 CLR
11:50 -12.7 °C -14.9 °C 34774.2 hPa Calm     76 % 0 mm 264.0 W/m2 CLR
11:55 -12.6 °C -14.9 °C 34774.2 hPa Calm     75 % 0 mm 308.0 W/m2 CLR
12:05 -12.1 °C -14.9 °C 34760.7 hPa Calm     71 % 0 mm 575.0 W/m2 CLR
12:10 -11.8 °C -14.6 °C 34760.7 hPa Calm     71 % 0 mm 374.0 W/m2 CLR
12:15 -11.6 °C -15.1 °C 34750.5 hPa Calm     66 % 0 mm 338.0 W/m2 CLR
12:20 -11.6 °C -15.1 °C 34750.5 hPa Calm     65 % 0 mm 383.0 W/m2 CLR
12:25 -11.5 °C -15 °C 34750.5 hPa Calm     65 % 0 mm 380.0 W/m2 CLR
12:30 -11.3 °C -14.8 °C 34740.4 hPa Calm     65 % 0 mm 445.0 W/m2 CLR
12:35 -11.2 °C -15.1 °C 34740.4 hPa Calm     62 % 0 mm 575.0 W/m2 CLR
12:40 -11.2 °C -14.9 °C 34740.4 hPa Calm     63 % 0 mm 629.0 W/m2 CLR
12:45 -11.1 °C -14.8 °C 34726.8 hPa Calm     63 % 0 mm 471.0 W/m2 CLR
12:50 -10.9 °C -15 °C 34726.8 hPa SE 9 km/h 9 km/h 61 % 0 mm 448.0 W/m2 CLR
12:55 -10.9 °C -15 °C 34726.8 hPa NW 11.9 km/h 11.9 km/h 61 % 0 mm 287.0 W/m2 CLR
13:00 -11.1 °C -15.1 °C 34726.8 hPa Calm     61 % 0 mm 278.0 W/m2 CLR
13:05 -11.1 °C -15.1 °C 34716.7 hPa NW 6 km/h 6 km/h 61 % 0 mm 313.0 W/m2 CLR
13:10 -11 °C -14.8 °C 34716.7 hPa NW 9 km/h 9 km/h 63 % 0 mm 320.0 W/m2 CLR
13:15 -11.1 °C -14.8 °C 34716.7 hPa NNW 15 km/h 15 km/h 63 % 0 mm 304.0 W/m2 CLR
13:20 -11.1 °C -15.1 °C 34716.7 hPa NNW 9 km/h 9 km/h 62 % 0 mm 272.0 W/m2 CLR
13:30 -11.1 °C -14.5 °C 34703.1 hPa Calm     66 % 0 mm 596.0 W/m2 CLR
13:35 -11 °C -14.9 °C 34703.1 hPa Calm     62 % 0 mm 455.0 W/m2 CLR
13:40 -10.9 °C -15 °C 34703.1 hPa Calm     61 % 0 mm 545.0 W/m2 CLR
13:45 -10.9 °C -14.9 °C 34703.1 hPa North 17.9 km/h 17.9 km/h 61 % 0 mm 550.0 W/m2 CLR
13:50 -10.8 °C -14.6 °C 34703.1 hPa Calm     63 % 0 mm 510.0 W/m2 CLR
13:55 -10.8 °C -14.9 °C 34693 hPa Calm     60 % 0 mm 499.0 W/m2 CLR
14:00 -10.6 °C -14.6 °C 34693 hPa Calm     62 % 0 mm 504.0 W/m2 CLR
14:05 -10.4 °C -14.7 °C 34693 hPa Calm     60 % 0 mm 531.0 W/m2 CLR
14:10 -10.3 °C -14.7 °C 34693 hPa Calm     59 % 0 mm 540.0 W/m2 CLR
14:20 -10.1 °C -15.2 °C 34682.8 hPa Calm     54 % 0 mm 443.0 W/m2 CLR
14:25 -10.1 °C -15.3 °C 34682.8 hPa WNW 9 km/h 9 km/h 53 % 0 mm 517.0 W/m2 CLR
14:30 -10.2 °C -14.9 °C 34669.3 hPa Calm     56 % 0 mm 490.0 W/m2 CLR
14:35 -10.1 °C -15.2 °C 34669.3 hPa NW 6 km/h   54 % 0 mm 376.0 W/m2 CLR
14:40 -10 °C -14.8 °C 34669.3 hPa Calm     56 % 0 mm 274.0 W/m2 CLR
14:50 -10 °C -15.2 °C 34659.1 hPa Calm     53 % 0 mm 510.0 W/m2 CLR
14:55 -9.9 °C -15.1 °C 34659.1 hPa Calm     54 % 0 mm 443.0 W/m2 CLR
15:00 -10.1 °C -15.4 °C 34659.1 hPa Calm     52 % 0 mm 243.0 W/m2 CLR
15:05 -10.2 °C -15.4 °C 34659.1 hPa Calm     53 % 0 mm 232.0 W/m2 CLR
15:10 -10.2 °C -15.4 °C 34659.1 hPa Calm     53 % 0 mm 218.0 W/m2 CLR
15:15 -10.2 °C -15.5 °C 34659.1 hPa Calm     52 % 0 mm 234.0 W/m2 CLR
15:20 -10.1 °C -15.1 °C 34659.1 hPa Calm     54 % 0 mm 295.0 W/m2 CLR
15:25 -9.9 °C -15.4 °C 34659.1 hPa Calm     52 % 0 mm 230.0 W/m2 CLR
15:30 -9.9 °C -15.5 °C 34659.1 hPa Calm     51 % 0 mm 111.0 W/m2 CLR
15:35 -9.9 °C -15.7 °C 34659.1 hPa Calm     50 % 0 mm 95.0 W/m2 CLR
15:40 -10 °C -15.4 °C 34659.1 hPa Calm     52 % 0 mm 118.0 W/m2 CLR
15:45 -10.1 °C -15.7 °C 34659.1 hPa Calm     51 % 0 mm 169.0 W/m2 CLR
15:55 -10.2 °C -15.4 °C 34659.1 hPa Calm     53 % 0 mm 109.0 W/m2 CLR
16:00 -10.3 °C -15.5 °C 34659.1 hPa Calm     53 % 0 mm 151.0 W/m2 CLR
16:10 -10.4 °C -15.6 °C 34645.6 hPa Calm     53 % 0 mm 130.0 W/m2 CLR
16:15 -10.4 °C -15.7 °C 34645.6 hPa Calm     53 % 0 mm 121.0 W/m2 CLR
16:20 -10.4 °C -15.7 °C 34645.6 hPa Calm     53 % 0 mm 91.0 W/m2 CLR
16:25 -10.4 °C -15.5 °C 34645.6 hPa Calm     54 % 0 mm 79.0 W/m2 CLR
16:35 -10.3 °C -14.8 °C 34645.6 hPa Calm     58 % 0 mm 229.0 W/m2 CLR
16:40 -10.3 °C -14.9 °C 34645.6 hPa Calm     57 % 0 mm 197.0 W/m2 CLR
16:45 -10.3 °C -14.9 °C 34645.6 hPa NE 5.1 km/h 5.1 km/h 57 % 0 mm 188.0 W/m2 CLR
16:50 -10.3 °C -14.8 °C 34645.6 hPa Calm     58 % 0 mm 171.0 W/m2 CLR
16:55 -10.4 °C -14.7 °C 34645.6 hPa Calm     59 % 0 mm 155.0 W/m2 CLR
17:00 -10.4 °C -14.8 °C 34645.6 hPa Calm     59 % 0 mm 141.0 W/m2 CLR
17:05 -10.4 °C -14.6 °C 34645.6 hPa Calm     60 % 0 mm 123.0 W/m2 CLR
17:16 -10.4 °C -14.9 °C 34645.6 hPa Calm     58 % 0 mm 72.0 W/m2 CLR
17:21 -10.4 °C -15.1 °C 34635.4 hPa Calm     57 % 0 mm 39.0 W/m2 BKN
17:26 -10.5 °C -15.3 °C 34645.6 hPa Calm     56 % 0 mm 21.0 W/m2 BKN
17:31 -10.6 °C -15.1 °C 34645.6 hPa Calm     58 % 0 mm 32.0 W/m2 BKN
17:36 -10.7 °C -15.1 °C 34645.6 hPa Calm     59 % 0 mm 19.0 W/m2 BKN
17:41 -10.8 °C -15 °C 34645.6 hPa Calm     60 % 0 mm 16.0 W/m2 BKN
17:46 -10.9 °C -15.1 °C 34645.6 hPa Calm     60 % 0 mm 12.0 W/m2 BKN
17:51 -10.9 °C -15.1 °C 34645.6 hPa Calm     61 % 0 mm 9.0 W/m2 BKN
17:56 -11.1 °C -15.1 °C 34645.6 hPa Calm     61 % 0 mm 9.0 W/m2 BKN
18:01 -11.2 °C -15.1 °C 34645.6 hPa Calm     62 % 0 mm 7.0 W/m2 BKN
18:06 -11.2 °C -15.1 °C 34645.6 hPa Calm     63 % 0 mm 7.0 W/m2 BKN
18:11 -11.3 °C -15 °C 34645.6 hPa Calm     64 % 0 mm 0.0 W/m2 OVC
18:16 -11.4 °C -15.1 °C 34645.6 hPa Calm     64 % 0 mm 0.0 W/m2 OVC
18:21 -11.5 °C -15 °C 34645.6 hPa Calm     65 % 0 mm 0.0 W/m2 OVC
18:31 -11.7 °C -15 °C 34645.6 hPa Calm     67 % 0 mm 0.0 W/m2 CLR
18:36 -11.8 °C -14.9 °C 34659.1 hPa Calm     68 % 0 mm 0.0 W/m2 CLR
18:41 -11.8 °C -14.9 °C 34659.1 hPa Calm     69 % 0 mm 0.0 W/m2 CLR
18:46 -11.9 °C -14.9 °C 34659.1 hPa Calm     69 % 0 mm 0.0 W/m2 CLR
18:51 -12 °C -14.9 °C 34659.1 hPa Calm     70 % 0 mm 0.0 W/m2 CLR
18:56 -12.1 °C -14.8 °C 34645.6 hPa Calm     72 % 0 mm 0.0 W/m2 CLR
19:06 -12.5 °C -14.9 °C 34659.1 hPa Calm     74 % 0 mm 0.0 W/m2 CLR
19:11 -12.5 °C -14.9 °C 34659.1 hPa Calm     74 % 0 mm 0.0 W/m2 CLR
19:21 -12.6 °C -14.9 °C 34669.3 hPa Calm     75 % 0 mm 0.0 W/m2 CLR
19:26 -12.8 °C -14.9 °C 34669.3 hPa Calm     77 % 0 mm 0.0 W/m2 CLR
19:31 -12.9 °C -14.9 °C 34669.3 hPa Calm     78 % 0 mm 0.0 W/m2 CLR
19:41 -13.1 °C -14.9 °C 34669.3 hPa Calm     80 % 0 mm 0.0 W/m2 CLR
19:46 -13.1 °C -14.9 °C 34669.3 hPa Calm     80 % 0 mm 0.0 W/m2 CLR
19:51 -13.1 °C -14.9 °C 34669.3 hPa Calm     80 % 0 mm 0.0 W/m2 CLR
19:56 -13.2 °C -14.9 °C 34669.3 hPa Calm     81 % 0 mm 0.0 W/m2 CLR
20:01 -13.2 °C -14.9 °C 34669.3 hPa Calm     81 % 0 mm 0.0 W/m2 CLR
20:06 -13.2 °C -14.9 °C 34682.8 hPa Calm     81 % 0 mm 0.0 W/m2 CLR
20:11 -13.3 °C -14.9 °C 34682.8 hPa Calm     82 % 0 mm 0.0 W/m2 CLR
20:16 -13.3 °C -14.9 °C 34682.8 hPa Calm     82 % 0 mm 0.0 W/m2 CLR
20:21 -13.2 °C -14.8 °C 34682.8 hPa Calm     82 % 0 mm 0.0 W/m2 CLR
20:22 -13.3 °C -14.8 °C 34682.8 hPa Calm     83 % 0 mm 0.0 W/m2 CLR
20:27 -13.3 °C -14.8 °C 34682.8 hPa Calm     83 % 0 mm 0.0 W/m2 CLR
20:32 -13.3 °C -14.8 °C 34682.8 hPa Calm     83 % 0 mm 0.0 W/m2 CLR
20:37 -13.3 °C -14.8 °C 34682.8 hPa Calm     83 % 0 mm 0.0 W/m2 CLR
20:42 -13.4 °C -14.9 °C 34682.8 hPa Calm     83 % 0 mm 0.0 W/m2 CLR
20:47 -13.4 °C -14.8 °C 34682.8 hPa Calm     84 % 0 mm 0.0 W/m2 CLR
20:52 -13.4 °C -14.8 °C 34693 hPa Calm     84 % 0 mm 0.0 W/m2 CLR
20:57 -13.3 °C -14.8 °C 34693 hPa Calm     84 % 0 mm 0.0 W/m2 CLR
21:02 -13.3 °C -14.7 °C 34693 hPa Calm     84 % 0 mm 0.0 W/m2 CLR
21:07 -13.3 °C -14.8 °C 34693 hPa Calm     84 % 0 mm 0.0 W/m2 CLR
21:12 -13.3 °C -14.8 °C 34693 hPa Calm     84 % 0 mm 0.0 W/m2 CLR
21:17 -13.4 °C -14.8 °C 34693 hPa Calm     84 % 0 mm 0.0 W/m2 CLR
21:22 -13.4 °C -14.9 °C 34693 hPa Calm     83 % 0 mm 0.0 W/m2 CLR
21:33 -13.4 °C -14.8 °C 34693 hPa Calm     85 % 0 mm 0.0 W/m2 CLR
21:38 -13.4 °C -14.7 °C 34703.1 hPa Calm     85 % 0 mm 0.0 W/m2 CLR
21:43 -13.4 °C -14.7 °C 34703.1 hPa Calm     85 % 0 mm 0.0 W/m2 CLR
21:48 -13.4 °C -14.7 °C 34693 hPa Calm     85 % 0 mm 0.0 W/m2 CLR
21:53 -13.4 °C -14.8 °C 34703.1 hPa Calm     84 % 0 mm 0.0 W/m2 CLR
21:58 -13.4 °C -14.8 °C 34693 hPa Calm     84 % 0 mm 0.0 W/m2 CLR
22:03 -13.4 °C -14.8 °C 34703.1 hPa Calm     84 % 0 mm 0.0 W/m2 CLR
22:08 -13.4 °C -14.7 °C 34703.1 hPa Calm     85 % 0 mm 0.0 W/m2 CLR
22:23 -13.4 °C -14.8 °C 34693 hPa Calm     85 % 0 mm 0.0 W/m2 CLR
22:28 -13.4 °C -14.8 °C 34693 hPa Calm     85 % 0 mm 0.0 W/m2 CLR
22:33 -13.5 °C -14.8 °C 34693 hPa Calm     85 % 0 mm 0.0 W/m2 CLR
22:38 -13.5 °C -14.8 °C 34693 hPa Calm     85 % 0 mm 0.0 W/m2 CLR
22:48 -13.5 °C -14.8 °C 34693 hPa Calm     85 % 0 mm 0.0 W/m2 CLR
22:58 -13.6 °C -14.9 °C 34693 hPa Calm     85 % 0 mm 0.0 W/m2 CLR
23:03 -13.6 °C -14.9 °C 34693 hPa Calm     85 % 0 mm 0.0 W/m2 CLR
23:08 -13.6 °C -14.9 °C 34693 hPa Calm     85 % 0 mm 0.0 W/m2 CLR
23:13 -13.6 °C -14.9 °C 34693 hPa Calm     85 % 0 mm 0.0 W/m2 CLR
23:18 -13.6 °C -14.8 °C 34693 hPa Calm     86 % 0 mm 0.0 W/m2 CLR
23:23 -13.6 °C -14.9 °C 34693 hPa Calm     85 % 0 mm 0.0 W/m2 CLR
23:28 -13.5 °C -14.8 °C 34693 hPa Calm     85 % 0 mm 0.0 W/m2 CLR
23:33 -13.5 °C -14.8 °C 34693 hPa Calm     85 % 0 mm 0.0 W/m2 CLR
23:38 -13.4 °C -14.8 °C 34703.1 hPa Calm     85 % 0 mm 0.0 W/m2 CLR
23:43 -13.4 °C -14.8 °C 34693 hPa Calm     85 % 0 mm 0.0 W/m2 CLR
23:48 -13.4 °C -14.8 °C 34693 hPa Calm     84 % 0 mm 0.0 W/m2 CLR
23:53 -13.4 °C -14.8 °C 34703.1 hPa Calm     84 % 0 mm 0.0 W/m2 CLR
23:58 -13.4 °C -14.8 °C 34693 hPa Calm     85 % 0 mm 0.0 W/m2 CLR
Lo Temps de Massalio
Compliments of Weather Underground - 1 mb